Location: Manosque
(43.8357°N, 5.7909°E)
Time: 01:46:36
(UTC+01:00)

ISS - Pass Details

Date: 27 October 2019
Orbit: 412 x 421 km, 51.6° (Epoch: 14 November)

Event Time Altitude Azimuth Distance (km) Brightness Sun altitude
Exits shadow 04:56:25 25° 142° (SE) 886 -1.9 -23.9°
Maximum altitude 04:56:36 25° 137° (SE) 883 -1.8 -23.9°
Drops below altitude 10° 04:59:26 10° 79° (E) 1,505 0.1 -23.4°
Sets 05:01:45 0° 66° (ENE) 2,372 1.3 -22.9°
